User: anonymous   Login
Location: Meetinghouse Hill
(42.7686°N, 71.7752°W)
Time: 06:13:57
(UTC-04:00)
Language:

Iridium 34 - Orbit

View from above orbital plane
View from above orbital plane
View from above satellite
View from above satellite

Ground track
Ground track

The orbit data is extracted from the following two-line orbital elements,

1 24969U 97056E   16238.51960115 -.00000025  00000-0 -15987-4 0  9998
2 24969  86.3925  82.4310 0002121  81.6182 278.5254 14.34214135990150
Epoch (UTC): 25 August 2016 12:28:13
Eccentricity: 0.0002121
inclination: 86.3925°
perigee height: 776 km
apogee height: 779 km
right ascension of ascending node: 82.4310°
argument of perigee: 81.6182°
revolutions per day: 14.34214135
mean anomaly at epoch: 278.5254°
orbit number at epoch: 99015

The dashed part of the orbit path shows where the satellite is in the earth's shadow,  

DLR